"startDT [UTC]","vpos","CH4 [ppm]","stdev(CH4) [ppm]","CO2 [ppm]","stdev(CO2) [ppm]","H2O_reported [%]","stdev(H2O_reported)","CavityPressure [torr]","CavityTemp [C]","OutletValve","CH4_dry [ppm]","CO2_dry [ppm]","DasTemp [C]","EtalonTemp [C]","WarmBoxTemp [C]","MPVPosition","T_ECpre [C]","T_EC1 [C]","T_EC2 [C]","p_inlet [hPa]","p_in [hPa]","p_out [hPa]","T_inlet [C]","RH_inlet [%]","dwpt_inlet [C]","T_vent [C]","RH_vent [%]","dwpt_vent [C]","flow_vent [l min-1]","flow_inlet [l min-1]","dwpt_sample [C]","T_room [C]"
2015-09-22 00:00:00,3.0,1.87952,0.01554,396.458,2.955,0.1244,0.1955,139.987,45.000,31536.88770,1.88374,396.990,36.626,45.067,45.000,0.00,0.09,-272.74,-272.81,-7,492,-949,21.0,18.9,-3.5,21.3,19.2,-3.1,5.73,1.87,-1.8,27.8
2015-09-22 00:01:00,3.0,1.87595,0.00030,396.962,0.040,0.0251,0.0020,140.001,45.000,31529.54278,1.87640,397.081,36.627,45.067,45.000,0.00,0.09,-272.75,-272.81,-6,492,-949,21.1,19.0,-3.5,21.3,19.2,-3.2,5.73,1.79,-1.9,27.9
2015-09-22 00:02:00,3.0,1.87587,0.00035,397.205,0.096,0.0234,0.0024,139.996,45.000,31526.90302,1.87630,397.313,36.625,45.067,45.000,0.00,0.09,-272.75,-272.80,-8,492,-949,21.1,19.0,-3.4,21.2,19.2,-3.1,5.73,2.11,-1.9,27.9
2015-09-22 00:03:00,3.0,1.87593,0.00047,397.396,0.048,0.0212,0.0014,140.000,45.000,31526.44950,1.87632,397.495,36.625,45.067,45.000,0.00,0.09,-272.74,-272.81,-8,493,-949,21.1,19.1,-3.4,21.3,19.3,-3.1,5.73,1.96,-1.8,27.9
2015-09-22 00:04:00,3.0,1.87577,0.00036,397.470,0.032,0.0159,0.0018,139.998,45.000,31526.84161,1.87608,397.547,36.623,45.067,45.000,0.00,0.09,-272.75,-272.81,-6,493,-949,21.1,19.0,-3.5,21.3,19.2,-3.1,5.73,1.76,-1.9,27.9
2015-09-22 00:05:00,3.0,1.87586,0.00024,397.481,0.033,0.0129,0.0027,139.998,45.000,31527.41471,1.87608,397.543,36.621,45.067,45.000,0.00,0.09,-272.75,-272.80,-7,493,-949,21.1,18.9,-3.5,21.3,19.2,-3.1,5.73,2.07,-1.9,27.9
2015-09-22 00:06:00,3.0,1.87597,0.00024,397.511,0.031,0.0100,0.0018,140.003,45.000,31529.85316,1.87615,397.559,36.622,45.067,45.000,0.00,0.09,-272.74,-272.80,-8,494,-949,21.1,18.9,-3.5,21.3,19.1,-3.2,5.73,2.02,-1.8,27.9
2015-09-22 00:07:00,3.0,1.87600,0.00048,397.529,0.033,0.0087,0.0016,140.001,45.000,31530.79697,1.87619,397.569,36.605,45.067,45.000,0.00,0.09,-272.75,-272.81,-8,494,-949,21.2,18.9,-3.4,21.3,19.2,-3.1,5.73,1.75,-1.9,27.9
2015-09-22 00:08:00,3.0,1.87600,0.00034,397.552,0.034,0.0068,0.0023,139.997,45.000,31531.90656,1.87610,397.585,36.568,45.067,45.000,0.00,0.09,-272.75,-272.81,-6,494,-949,21.2,18.8,-3.5,21.3,19.2,-3.1,5.73,2.02,-1.9,27.9
2015-09-22 00:09:00,3.0,1.87611,0.00030,397.551,0.026,0.0059,0.0016,139.999,45.000,31533.46277,1.87621,397.580,36.564,45.068,45.000,0.00,0.09,-272.74,-272.80,-7,495,-949,21.2,18.8,-3.5,21.3,19.1,-3.1,5.73,2.07,-1.9,27.9
2015-09-22 00:10:00,3.0,1.87631,0.00039,397.566,0.025,0.0051,0.0026,139.998,45.000,31534.04056,1.87639,397.589,36.563,45.068,45.000,0.00,0.09,-272.74,-272.81,-8,495,-949,21.3,18.8,-3.4,21.4,19.2,-3.0,5.73,1.76,-1.9,27.9
2015-09-22 00:11:00,3.0,1.87628,0.00039,397.570,0.041,0.0039,0.0020,139.999,45.000,31537.30958,1.87639,397.588,36.563,45.068,45.000,0.00,0.09,-272.75,-272.81,-8,496,-949,21.3,18.6,-3.5,21.4,19.0,-3.2,5.73,1.96,-1.9,27.9
2015-09-22 00:12:00,3.0,1.87616,0.00051,397.566,0.034,0.0041,0.0025,140.001,45.000,31541.79858,1.87622,397.587,36.559,45.068,45.000,0.00,0.09,-272.74,-272.80,-7,496,-949,21.3,18.7,-3.4,21.4,19.0,-3.1,5.73,2.11,-1.9,28.0
2015-09-22 00:13:00,3.0,1.87642,0.00037,397.579,0.029,0.0036,0.0017,140.001,45.000,31543.71199,1.87647,397.596,36.564,45.068,45.000,0.00,0.09,-272.73,-272.80,-7,496,-949,21.3,18.8,-3.4,21.5,19.1,-3.1,5.73,1.79,-1.9,28.0
2015-09-22 00:14:00,3.0,1.87641,0.00029,397.585,0.025,0.0035,0.0021,140.002,45.000,31546.88364,1.87649,397.601,36.568,45.068,45.000,0.00,0.09,-272.75,-272.81,-8,497,-949,21.4,18.8,-3.3,21.5,19.2,-3.0,5.73,1.90,-1.9,28.0
2015-09-22 00:15:00,3.0,1.87618,0.00036,397.599,0.031,0.0028,0.0021,140.000,45.000,31549.24749,1.87625,397.613,36.566,45.068,45.000,0.00,0.09,-272.75,-272.80,-8,497,-949,21.4,18.8,-3.4,21.5,19.1,-3.0,5.73,2.13,-1.9,28.0
2015-09-22 00:16:00,3.0,1.87611,0.00038,397.575,0.030,0.0019,0.0021,139.999,45.000,31552.41073,1.87614,397.583,36.568,45.068,45.000,0.00,0.09,-272.74,-272.81,-6,497,-949,21.5,18.7,-3.4,21.5,19.1,-3.0,5.73,1.83,-1.9,28.0
2015-09-22 00:17:00,3.0,1.87614,0.00038,397.584,0.024,0.0031,0.0017,139.999,45.000,31553.82212,1.87617,397.599,36.581,45.067,45.000,0.00,0.09,-272.74,-272.80,-7,498,-949,21.5,18.6,-3.4,21.6,19.0,-3.1,5.73,1.86,-1.9,28.0
2015-09-22 00:18:00,3.0,1.87641,0.00035,397.599,0.044,0.0024,0.0021,139.999,45.000,31553.15797,1.87648,397.610,36.576,45.067,45.000,0.00,0.09,-272.75,-272.80,-8,498,-949,21.5,18.6,-3.4,21.6,18.9,-3.1,5.73,2.13,-1.9,28.1
2015-09-22 00:19:00,3.0,1.87644,0.00030,397.591,0.043,0.0016,0.0016,140.001,45.000,31556.80110,1.87646,397.599,36.563,45.067,45.000,0.00,0.09,-272.74,-272.80,-7,498,-949,21.6,18.4,-3.5,21.6,18.8,-3.2,5.73,1.86,-1.9,28.1
2015-09-22 00:20:00,0.0,1.91808,0.01509,390.563,2.882,0.4838,0.2031,140.008,45.000,31671.14554,1.92556,392.939,36.567,45.067,45.000,0.00,0.09,-272.74,-272.79,-9,514,-949,21.6,18.2,-3.6,21.6,18.7,-3.2,5.73,1.91,-1.9,28.1
2015-09-22 00:21:00,0.0,1.92253,0.00040,389.074,0.072,0.5923,0.0025,140.000,45.000,31688.54032,1.93397,391.895,36.564,45.067,45.000,0.00,0.09,-272.75,-272.80,-8,515,-949,21.6,18.2,-3.6,21.7,18.6,-3.2,5.73,2.05,-1.9,28.1
2015-09-22 00:22:00,0.0,1.92257,0.00037,388.962,0.108,0.5963,0.0023,140.001,45.000,31694.01427,1.93407,391.805,36.539,45.067,45.000,0.00,0.09,-272.74,-272.80,-9,515,-949,21.6,18.2,-3.6,21.7,18.6,-3.3,5.73,2.11,-1.9,28.1
2015-09-22 00:23:00,0.0,1.92217,0.00031,388.818,0.165,0.6003,0.0030,140.002,45.000,31699.14622,1.93374,391.681,36.509,45.067,45.000,0.00,0.09,-272.73,-272.80,-9,516,-949,21.7,18.2,-3.6,21.7,18.6,-3.2,5.73,1.91,-1.9,28.1
2015-09-22 00:24:00,0.0,1.92203,0.00040,388.677,0.041,0.5971,0.0021,140.001,45.000,31700.15393,1.93353,391.517,36.513,45.068,45.000,0.00,0.09,-272.74,-272.81,-9,516,-949,21.7,18.1,-3.6,21.7,18.5,-3.2,5.73,1.81,-1.9,28.1
2015-09-22 00:25:00,0.0,1.92225,0.00041,388.768,0.076,0.5982,0.0027,139.999,45.000,31702.10727,1.93378,391.616,36.502,45.068,45.000,0.00,0.09,-272.75,-272.80,-8,516,-949,21.7,18.1,-3.6,21.7,18.5,-3.3,5.73,2.00,-1.8,28.2
2015-09-22 00:26:00,0.0,1.92231,0.00040,388.858,0.067,0.5987,0.0039,140.002,45.000,31705.67394,1.93385,391.706,36.512,45.068,45.000,0.00,0.09,-272.74,-272.80,-8,516,-949,21.7,18.1,-3.6,21.7,18.5,-3.3,5.73,2.13,-1.8,28.1
2015-09-22 00:27:00,0.0,1.92258,0.00042,389.130,0.109,0.5932,0.0021,139.999,45.000,31705.78249,1.93398,391.954,36.560,45.068,45.000,0.00,0.09,-272.74,-272.80,-9,516,-949,21.7,17.8,-3.8,21.7,18.4,-3.4,5.73,1.96,-1.8,28.2
2015-09-22 00:28:00,0.0,1.92278,0.00043,389.197,0.059,0.5955,0.0037,140.004,45.000,31707.73147,1.93426,392.034,36.565,45.067,45.000,0.00,0.09,-272.74,-272.81,-9,516,-949,21.7,17.9,-3.7,21.7,18.3,-3.4,5.73,1.81,-1.9,28.2
2015-09-22 00:29:00,0.0,1.92206,0.00046,389.176,0.113,0.5998,0.0023,139.999,45.000,31709.85987,1.93363,392.039,36.565,45.067,45.000,0.00,0.09,-272.74,-272.80,-9,517,-949,21.7,18.0,-3.7,21.8,18.4,-3.3,5.73,1.94,-1.9,28.2
2015-09-22 00:30:00,0.0,1.92179,0.00045,388.951,0.072,0.5970,0.0035,139.998,45.000,31711.78366,1.93330,391.798,36.584,45.067,45.000,0.00,0.09,-272.74,-272.80,-9,517,-949,21.7,17.9,-3.7,21.7,18.4,-3.4,5.73,2.13,-1.8,28.2
2015-09-22 00:31:00,0.0,1.92157,0.00036,389.049,0.073,0.5969,0.0032,140.003,45.000,31714.23345,1.93307,391.890,36.566,45.067,45.000,0.00,0.09,-272.75,-272.81,-8,517,-949,21.7,17.9,-3.7,21.7,18.4,-3.4,5.73,2.01,-1.9,28.1
2015-09-22 00:32:00,0.0,1.92181,0.00045,389.215,0.089,0.5994,0.0020,139.999,45.000,31713.78186,1.93331,392.070,36.568,45.067,45.000,0.00,0.09,-272.74,-272.80,-8,517,-949,21.7,18.0,-3.6,21.7,18.4,-3.3,5.73,1.81,-1.8,28.1
2015-09-22 00:33:00,0.0,1.92210,0.00048,389.022,0.119,0.5997,0.0063,140.002,45.000,31714.51061,1.93367,391.885,36.569,45.067,45.000,0.00,0.09,-272.74,-272.79,-9,517,-949,21.6,18.0,-3.7,21.8,18.5,-3.3,5.73,1.91,-1.9,28.2
2015-09-22 00:34:00,0.0,1.92209,0.00041,389.219,0.105,0.5975,0.0030,139.998,45.000,31713.93533,1.93361,392.061,36.563,45.067,45.000,0.00,0.09,-272.75,-272.80,-9,517,-949,21.7,17.9,-3.7,21.8,18.3,-3.3,5.73,2.11,-1.8,28.2
2015-09-22 00:35:00,0.0,1.92235,0.00040,389.382,0.085,0.5917,0.0030,139.999,45.000,31714.16657,1.93375,392.204,36.561,45.067,45.000,0.00,0.09,-272.74,-272.80,-9,517,-949,21.7,17.8,-3.8,21.7,18.2,-3.4,5.73,2.05,-1.9,28.1
2015-09-22 00:36:00,0.0,1.92217,0.00036,389.274,0.104,0.5979,0.0027,139.998,45.000,31714.48122,1.93370,392.128,36.537,45.067,45.000,0.00,0.09,-272.73,-272.80,-9,517,-949,21.6,18.0,-3.7,21.7,18.3,-3.4,5.73,1.84,-1.9,28.1
2015-09-22 00:37:00,0.0,1.92208,0.00037,388.789,0.096,0.5936,0.0056,140.002,45.000,31715.27136,1.93351,391.622,36.506,45.068,45.000,0.00,0.09,-272.74,-272.80,-8,517,-949,21.6,17.9,-3.8,21.7,18.2,-3.5,5.73,1.86,-1.8,28.1
2015-09-22 00:38:00,0.0,1.92253,0.00041,388.786,0.094,0.5922,0.0025,139.999,45.000,31713.51340,1.93393,391.604,36.522,45.068,45.000,0.00,0.09,-272.75,-272.81,-9,517,-949,21.6,17.8,-3.9,21.7,18.2,-3.5,5.73,2.08,-1.8,28.2
2015-09-22 00:39:00,0.0,1.92229,0.00042,388.790,0.035,0.5973,0.0019,140.001,45.000,31716.56971,1.93380,391.635,36.515,45.068,45.000,0.00,0.09,-272.74,-272.80,-9,517,-949,21.6,18.0,-3.8,21.7,18.3,-3.4,5.73,2.08,-1.9,28.2
2015-09-22 00:40:00,0.0,1.92236,0.00043,388.767,0.067,0.5963,0.0022,140.001,45.000,31715.86369,1.93383,391.603,36.512,45.068,45.000,0.00,0.09,-272.74,-272.80,-9,517,-949,21.6,18.0,-3.8,21.7,18.3,-3.4,5.73,1.86,-1.9,28.2
2015-09-22 00:41:00,0.0,1.92237,0.00034,388.975,0.105,0.6024,0.0054,140.001,45.000,31715.84987,1.93400,391.847,36.516,45.068,45.000,0.00,0.09,-272.74,-272.81,-9,517,-949,21.6,18.2,-3.6,21.8,18.4,-3.3,5.73,1.83,-1.8,28.1
2015-09-22 00:42:00,0.0,1.92215,0.00041,388.765,0.094,0.6039,0.0046,140.000,45.000,31717.04748,1.93380,391.646,36.507,45.068,45.000,0.00,0.09,-272.75,-272.80,-8,517,-949,21.5,18.2,-3.7,21.7,18.6,-3.2,5.73,2.04,-1.9,28.1
2015-09-22 00:43:00,0.0,1.92194,0.00021,388.612,0.046,0.6007,0.0019,140.000,45.000,31717.42892,1.93351,391.471,36.515,45.068,45.000,0.00,0.09,-272.74,-272.80,-8,517,-949,21.5,18.1,-3.7,21.7,18.5,-3.3,5.73,2.11,-1.8,28.1
2015-09-22 00:44:00,0.0,1.92217,0.00040,388.587,0.056,0.6001,0.0023,139.996,45.000,31715.99422,1.93371,391.444,36.510,45.068,45.000,0.00,0.09,-272.74,-272.80,-9,517,-949,21.5,18.1,-3.7,21.7,18.5,-3.3,5.73,1.91,-1.9,28.2
2015-09-22 00:45:00,0.0,1.92236,0.00034,388.589,0.038,0.5994,0.0036,140.000,45.000,31716.99590,1.93390,391.442,36.502,45.068,45.000,0.00,0.09,-272.74,-272.81,-9,517,-949,21.5,18.1,-3.8,21.6,18.5,-3.3,5.73,1.80,-1.9,28.1
2015-09-22 00:46:00,0.0,1.92247,0.00058,388.599,0.039,0.5967,0.0031,139.998,45.000,31715.48159,1.93398,391.439,36.506,45.067,45.000,0.00,0.09,-272.74,-272.80,-9,517,-949,21.4,18.1,-3.8,21.6,18.4,-3.4,5.73,2.00,-1.9,28.1
2015-09-22 00:47:00,0.0,1.92266,0.00043,388.907,0.168,0.5983,0.0044,140.001,45.000,31716.39782,1.93417,391.750,36.504,45.067,45.000,0.00,0.09,-272.74,-272.79,-9,517,-949,21.5,18.1,-3.8,21.7,18.4,-3.4,5.73,2.13,-1.9,28.1
2015-09-22 00:48:00,0.0,1.92247,0.00031,388.913,0.063,0.6008,0.0055,139.999,45.000,31716.38900,1.93406,391.778,36.516,45.067,45.000,0.00,0.09,-272.74,-272.80,-8,517,-949,21.5,18.2,-3.7,21.6,18.5,-3.3,5.73,1.97,-1.9,28.1
2015-09-22 00:49:00,0.0,1.92263,0.00044,388.951,0.069,0.5970,0.0040,140.001,45.000,31717.74735,1.93413,391.797,36.508,45.067,45.000,0.00,0.09,-272.74,-272.80,-9,517,-949,21.5,18.1,-3.8,21.6,18.4,-3.4,5.73,1.81,-1.9,28.0
2015-09-22 00:50:00,0.0,1.92278,0.00032,388.950,0.080,0.6050,0.0051,139.997,45.000,31717.64782,1.93442,391.827,36.510,45.067,45.000,0.00,0.09,-272.74,-272.80,-9,517,-949,21.4,18.4,-3.6,21.6,18.6,-3.3,5.73,1.93,-1.9,28.1
2015-09-22 00:51:00,0.0,1.92285,0.00048,389.300,0.141,0.6048,0.0031,140.001,45.000,31717.61317,1.93450,392.178,36.500,45.067,45.000,0.00,0.09,-272.74,-272.81,-9,517,-949,21.4,18.4,-3.6,21.6,18.7,-3.3,5.73,2.12,-1.9,28.1
2015-09-22 00:52:00,0.0,1.92312,0.00040,389.263,0.198,0.6103,0.0028,139.999,45.000,31715.35305,1.93490,392.182,36.500,45.067,45.000,0.00,0.09,-272.74,-272.81,-9,517,-949,21.4,18.6,-3.5,21.6,18.8,-3.2,5.73,2.03,-1.9,28.1
2015-09-22 00:53:00,0.0,1.92241,0.00037,388.709,0.175,0.6031,0.0045,139.999,45.000,31715.37987,1.93404,391.589,36.503,45.067,45.000,0.00,0.09,-272.74,-272.81,-8,517,-949,21.4,18.4,-3.6,21.6,18.7,-3.2,5.73,1.82,-1.9,28.0
2015-09-22 00:54:00,0.0,1.92291,0.00042,388.584,0.054,0.5999,0.0046,139.999,45.000,31713.25807,1.93445,391.439,36.513,45.067,45.000,0.00,0.09,-272.74,-272.80,-8,517,-949,21.4,18.2,-3.8,21.6,18.6,-3.3,5.73,1.88,-1.9,28.1
2015-09-22 00:55:00,0.0,1.92297,0.00028,388.685,0.050,0.6000,0.0035,140.001,45.000,31714.06144,1.93455,391.544,36.501,45.067,45.000,0.00,0.09,-272.75,-272.81,-9,517,-949,21.4,18.3,-3.7,21.6,18.6,-3.3,5.73,2.10,-1.9,28.1
2015-09-22 00:56:00,0.0,1.92297,0.00034,388.683,0.049,0.5917,0.0027,140.004,45.000,31714.72372,1.93434,391.496,36.501,45.067,45.000,0.00,0.09,-272.75,-272.80,-9,517,-949,21.3,18.0,-4.0,21.5,18.4,-3.5,5.73,2.07,-1.9,28.1
2015-09-22 00:57:00,0.0,1.92292,0.00039,388.872,0.114,0.5904,0.0016,140.001,45.000,31714.26417,1.93434,391.678,36.505,45.067,45.000,0.00,0.09,-272.74,-272.80,-9,517,-949,21.3,18.0,-4.0,21.5,18.3,-3.6,5.73,1.86,-1.9,28.1
2015-09-22 00:58:00,0.0,1.92275,0.00045,388.916,0.134,0.5911,0.0023,139.997,45.000,31713.44055,1.93412,391.737,36.502,45.068,45.000,0.00,0.09,-272.75,-272.80,-9,517,-949,21.3,18.0,-4.0,21.5,18.3,-3.6,5.73,1.84,-1.9,28.0
2015-09-22 00:59:00,0.0,1.92265,0.00035,388.693,0.089,0.5920,0.0044,139.997,45.000,31712.10152,1.93406,391.513,36.513,45.067,45.000,0.00,0.09,-272.74,-272.80,-8,517,-949,21.3,18.1,-3.9,21.5,18.4,-3.5,5.73,2.07,-1.9,28.0
2015-09-22 01:00:00,0.0,1.92264,0.00032,388.597,0.056,0.5924,0.0038,140.000,45.000,31713.21194,1.93403,391.420,36.520,45.067,45.000,0.00,0.09,-272.74,-272.79,-8,517,-949,21.3,18.1,-3.9,21.5,18.4,-3.6,5.73,2.10,-1.9,28.0
2015-09-22 01:01:00,0.0,1.92296,0.00039,388.624,0.079,0.5864,0.0033,140.001,45.000,31711.31311,1.93426,391.412,36.528,45.067,45.000,0.00,0.09,-272.74,-272.80,-9,516,-949,21.3,17.9,-4.1,21.5,18.2,-3.7,5.73,1.90,-1.9,28.0
2015-09-22 01:02:00,0.0,1.92304,0.00038,388.698,0.060,0.5876,0.0035,140.000,45.000,31710.02972,1.93436,391.493,36.535,45.067,45.000,0.00,0.09,-272.74,-272.80,-9,517,-949,21.3,17.9,-4.1,21.5,18.2,-3.7,5.73,1.82,-1.9,28.0
2015-09-22 01:03:00,0.0,1.92305,0.00034,388.727,0.060,0.5957,0.0060,139.997,45.000,31708.72913,1.93451,391.561,36.558,45.067,45.000,0.00,0.09,-272.75,-272.80,-9,517,-949,21.3,18.2,-3.8,21.5,18.4,-3.5,5.73,2.01,-1.9,28.0
2015-09-22 01:04:00,0.0,1.92294,0.00047,388.957,0.063,0.5963,0.0045,140.000,45.000,31711.10670,1.93445,391.794,36.561,45.067,45.000,0.00,0.09,-272.74,-272.80,-9,517,-949,21.3,18.3,-3.8,21.5,18.5,-3.5,5.73,2.13,-1.9,28.0
2015-09-22 01:05:00,0.0,1.92273,0.00028,389.097,0.108,0.5998,0.0050,140.001,45.000,31711.71983,1.93430,391.959,36.554,45.067,45.000,0.00,0.09,-272.74,-272.81,-8,516,-949,21.3,18.3,-3.8,21.5,18.6,-3.4,5.73,1.95,-1.9,28.0
2015-09-22 01:06:00,0.0,1.92315,0.00053,389.087,0.206,0.5911,0.0035,140.000,45.000,31712.62005,1.93453,391.898,36.556,45.067,45.000,0.00,0.09,-272.74,-272.81,-9,516,-949,21.3,18.1,-4.0,21.5,18.5,-3.5,5.73,1.81,-1.9,28.0
2015-09-22 01:07:00,0.0,1.92318,0.00031,389.295,0.136,0.5965,0.0033,139.998,45.000,31714.02791,1.93464,392.132,36.561,45.067,45.000,0.00,0.09,-272.74,-272.80,-9,516,-949,21.2,18.3,-3.8,21.5,18.5,-3.5,5.73,1.95,-1.9,28.0
2015-09-22 01:08:00,0.0,1.92304,0.00027,389.480,0.175,0.6026,0.0036,140.000,45.000,31715.27333,1.93469,392.362,36.562,45.067,45.000,0.00,0.09,-272.75,-272.81,-9,517,-949,21.2,18.5,-3.7,21.5,18.7,-3.3,5.73,2.12,-1.9,28.0
2015-09-22 01:09:00,0.0,1.92334,0.00037,389.033,0.097,0.6003,0.0046,139.998,45.000,31711.97143,1.93492,391.896,36.560,45.067,45.000,0.00,0.09,-272.74,-272.80,-9,516,-949,21.2,18.4,-3.7,21.5,18.7,-3.3,5.73,2.01,-1.9,28.0
2015-09-22 01:10:00,0.0,1.92296,0.00027,388.962,0.081,0.5989,0.0050,139.997,45.000,31711.36087,1.93448,391.819,36.565,45.067,45.000,0.00,0.09,-272.74,-272.80,-8,516,-949,21.2,18.4,-3.8,21.5,18.6,-3.4,5.73,1.82,-1.9,28.0
2015-09-22 01:11:00,0.0,1.92307,0.00042,389.160,0.125,0.6035,0.0038,140.000,45.000,31711.26635,1.93470,392.026,36.562,45.067,45.000,0.00,0.09,-272.75,-272.80,-8,516,-949,21.2,18.6,-3.6,21.4,18.8,-3.3,5.73,1.89,-1.9,28.0
2015-09-22 01:12:00,0.0,1.92311,0.00035,389.474,0.145,0.5980,0.0024,139.998,45.000,31708.61669,1.93463,392.333,36.563,45.067,45.000,0.00,0.09,-272.75,-272.80,-9,516,-949,21.2,18.4,-3.8,21.4,18.7,-3.4,5.73,2.11,-1.9,28.0
2015-09-22 01:13:00,0.0,1.92334,0.00039,389.076,0.101,0.5909,0.0025,140.001,45.000,31709.23316,1.93472,391.896,36.548,45.067,45.000,0.00,0.09,-272.74,-272.80,-9,516,-949,21.2,18.2,-4.0,21.4,18.5,-3.5,5.73,2.06,-1.9,28.0
2015-09-22 01:14:00,0.0,1.92316,0.00037,388.908,0.076,0.5877,0.0027,140.003,45.000,31710.04854,1.93451,391.705,36.548,45.067,45.000,0.00,0.09,-272.74,-272.80,-9,516,-949,21.2,18.1,-4.0,21.4,18.4,-3.6,5.73,1.85,-1.9,27.9
2015-09-22 01:15:00,0.0,1.92315,0.00043,388.982,0.096,0.5922,0.0033,140.000,45.000,31709.03668,1.93457,391.802,36.528,45.067,45.000,0.00,0.09,-272.75,-272.80,-9,516,-949,21.2,18.2,-3.9,21.4,18.5,-3.6,5.73,1.85,-1.9,27.9
2015-09-22 01:16:00,0.0,1.92260,0.00047,388.932,0.091,0.5842,0.0030,140.001,45.000,31710.24341,1.93385,391.717,36.509,45.068,45.000,0.00,0.09,-272.75,-272.80,-8,516,-949,21.2,18.0,-4.1,21.4,18.3,-3.7,5.73,2.06,-1.9,27.9
2015-09-22 01:17:00,0.0,1.92279,0.00039,388.953,0.147,0.5827,0.0029,139.998,45.000,31707.30770,1.93403,391.731,36.504,45.068,45.000,0.00,0.09,-272.74,-272.80,-8,516,-949,21.2,17.9,-4.1,21.4,18.2,-3.8,5.73,2.10,-1.9,27.9
2015-09-22 01:18:00,0.0,1.92235,0.00027,388.886,0.126,0.5862,0.0048,139.997,45.000,31709.66795,1.93365,391.672,36.514,45.068,45.000,0.00,0.09,-272.74,-272.81,-9,516,-949,21.2,18.1,-4.0,21.4,18.2,-3.7,5.73,1.90,-1.9,27.9
2015-09-22 01:19:00,0.0,1.92207,0.00038,388.951,0.059,0.5921,0.0054,140.002,45.000,31711.45763,1.93345,391.771,36.520,45.068,45.000,0.00,0.09,-272.74,-272.81,-9,516,-949,21.1,18.3,-3.9,21.4,18.5,-3.6,5.73,1.82,-1.9,27.9
2015-09-22 01:20:00,0.0,1.92243,0.00036,389.058,0.120,0.5969,0.0030,140.001,45.000,31710.53167,1.93396,391.898,36.532,45.068,45.000,0.00,0.09,-272.74,-272.80,-9,516,-949,21.1,18.4,-3.8,21.4,18.6,-3.5,5.73,2.01,-1.9,27.9
2015-09-22 01:21:00,0.0,1.92243,0.00039,389.117,0.046,0.6017,0.0032,139.999,45.000,31710.70221,1.93399,391.984,36.538,45.068,45.000,0.00,0.09,-272.74,-272.80,-8,516,-949,21.1,18.7,-3.7,21.4,18.8,-3.4,5.73,2.13,-1.9,27.9
2015-09-22 01:22:00,0.0,1.92273,0.00046,389.045,0.098,0.6012,0.0034,140.001,45.000,31708.29520,1.93434,391.915,36.528,45.067,45.000,0.00,0.09,-272.75,-272.81,-8,516,-949,21.1,18.6,-3.7,21.3,18.8,-3.4,5.73,1.96,-1.9,27.9
2015-09-22 01:23:00,0.0,1.92308,0.00037,388.877,0.139,0.5901,0.0036,140.000,45.000,31709.98399,1.93441,391.685,36.505,45.067,45.000,0.00,0.09,-272.74,-272.80,-8,516,-949,21.1,18.3,-4.0,21.4,18.6,-3.5,5.73,1.81,-1.9,27.9
2015-09-22 01:24:00,0.0,1.92320,0.00040,389.064,0.068,0.5936,0.0043,140.000,45.000,31710.05609,1.93463,391.895,36.507,45.067,45.000,0.00,0.09,-272.75,-272.80,-9,516,-949,21.1,18.4,-3.9,21.3,18.6,-3.6,5.73,1.94,-1.9,27.9
2015-09-22 01:25:00,0.0,1.92354,0.00041,388.814,0.085,0.5902,0.0038,140.001,45.000,31706.97686,1.93493,391.630,36.527,45.067,45.000,0.00,0.09,-272.75,-272.81,-9,516,-949,21.1,18.3,-3.9,21.3,18.6,-3.6,5.73,2.13,-1.9,27.9
2015-09-22 01:26:00,0.0,1.92369,0.00038,388.707,0.025,0.5872,0.0024,139.999,45.000,31705.36712,1.93497,391.499,36.517,45.067,45.000,0.00,0.09,-272.74,-272.81,-9,516,-949,21.1,18.2,-4.0,21.3,18.4,-3.7,5.73,2.02,-2.0,27.9
2015-09-22 01:27:00,0.0,1.92358,0.00037,388.680,0.037,0.5917,0.0036,140.003,45.000,31708.98032,1.93498,391.495,36.504,45.067,45.000,0.00,0.09,-272.73,-272.80,-8,516,-949,21.1,18.3,-3.9,21.3,18.5,-3.6,5.73,1.83,-1.9,27.9
2015-09-22 01:28:00,0.0,1.92361,0.00037,388.794,0.104,0.5943,0.0028,139.999,45.000,31707.31182,1.93511,391.623,36.500,45.067,45.000,0.00,0.09,-272.75,-272.80,-8,516,-949,21.1,18.4,-3.8,21.3,18.6,-3.5,5.73,1.89,-1.9,27.9
2015-09-22 01:29:00,0.0,1.92351,0.00040,388.667,0.057,0.5954,0.0031,139.998,45.000,31707.53944,1.93496,391.504,36.501,45.067,45.000,0.00,0.09,-272.75,-272.80,-9,516,-949,21.1,18.5,-3.8,21.3,18.7,-3.5,5.73,2.10,-1.9,27.9
2015-09-22 01:30:00,0.0,1.92320,0.00027,388.663,0.039,0.5972,0.0037,140.000,45.000,31706.96549,1.93474,391.507,36.529,45.068,45.000,0.00,0.09,-272.74,-272.80,-9,516,-949,21.1,18.6,-3.8,21.3,18.7,-3.4,5.73,2.08,-1.9,27.9
2015-09-22 01:31:00,0.0,1.92321,0.00034,388.614,0.048,0.5970,0.0034,140.000,45.000,31708.02339,1.93474,391.454,36.558,45.067,45.000,0.00,0.09,-272.74,-272.80,-9,516,-949,21.1,18.5,-3.8,21.3,18.7,-3.5,5.73,1.86,-1.9,27.9
2015-09-22 01:32:00,0.0,1.92312,0.00042,388.638,0.045,0.5886,0.0056,139.999,45.000,31706.31625,1.93446,391.442,36.559,45.067,45.000,0.00,0.09,-272.74,-272.81,-9,516,-949,21.0,18.2,-4.0,21.3,18.6,-3.5,5.73,1.84,-1.9,27.9
2015-09-22 01:33:00,0.0,1.92320,0.00035,388.813,0.122,0.5843,0.0025,140.001,45.000,31705.79838,1.93443,391.588,36.563,45.067,45.000,0.00,0.09,-272.75,-272.80,-8,516,-949,21.1,18.1,-4.1,21.3,18.4,-3.7,5.73,2.05,-2.0,27.9
2015-09-22 01:34:00,0.0,1.92330,0.00037,389.007,0.104,0.5940,0.0031,139.999,45.000,31705.64873,1.93476,391.838,36.563,45.067,45.000,0.00,0.09,-272.74,-272.80,-8,516,-949,21.0,18.4,-3.9,21.3,18.6,-3.6,5.73,2.11,-1.9,27.9
2015-09-22 01:35:00,0.0,1.92319,0.00037,388.798,0.070,0.5910,0.0030,140.000,45.000,31705.78492,1.93456,391.616,36.563,45.067,45.000,0.00,0.09,-272.74,-272.81,-9,516,-949,21.1,18.4,-3.9,21.3,18.6,-3.6,5.73,1.92,-1.9,27.9
2015-09-22 01:36:00,0.0,1.92326,0.00022,388.835,0.113,0.5976,0.0021,139.999,45.000,31703.91009,1.93479,391.678,36.564,45.067,45.000,0.00,0.09,-272.75,-272.80,-9,516,-949,21.1,18.6,-3.8,21.3,18.7,-3.5,5.73,1.81,-2.0,27.9
2015-09-22 01:37:00,0.0,1.92331,0.00042,388.806,0.054,0.5940,0.0084,140.000,45.000,31704.79416,1.93475,391.636,36.563,45.067,45.000,0.00,0.09,-272.74,-272.80,-9,516,-949,21.1,18.4,-3.9,21.3,18.8,-3.4,5.73,1.99,-1.9,27.9
2015-09-22 01:38:00,0.0,1.92337,0.00033,388.702,0.089,0.5910,0.0048,140.000,45.000,31703.35363,1.93478,391.518,36.565,45.067,45.000,0.00,0.09,-272.75,-272.80,-8,516,-949,21.1,18.4,-3.9,21.3,18.6,-3.6,5.73,2.13,-2.0,27.9
2015-09-22 01:39:00,0.0,1.92303,0.00049,388.742,0.055,0.5976,0.0041,140.001,45.000,31704.40495,1.93455,391.585,36.577,45.067,45.000,0.00,0.09,-272.75,-272.81,-8,516,-949,21.1,18.6,-3.8,21.3,18.7,-3.5,5.73,1.98,-2.0,27.9
2015-09-22 01:40:00,0.0,1.92326,0.00029,388.729,0.076,0.5980,0.0044,140.000,45.000,31704.70664,1.93478,391.578,36.565,45.067,45.000,0.00,0.09,-272.73,-272.80,-8,516,-949,21.0,18.6,-3.8,21.3,18.8,-3.4,5.73,1.81,-2.0,27.9
2015-09-22 01:41:00,0.0,1.92371,0.00039,388.933,0.172,0.5917,0.0031,139.998,45.000,31702.02635,1.93513,391.743,36.563,45.067,45.000,0.00,0.09,-272.74,-272.80,-9,516,-949,21.1,18.4,-3.9,21.3,18.7,-3.5,5.73,1.93,-2.0,27.9
2015-09-22 01:42:00,0.0,1.92361,0.00030,389.340,0.081,0.5944,0.0036,139.997,45.000,31701.14896,1.93505,392.169,36.572,45.067,45.000,0.00,0.09,-272.75,-272.80,-9,516,-949,21.0,18.5,-3.8,21.3,18.7,-3.5,5.73,2.12,-2.0,27.8
2015-09-22 01:43:00,0.0,1.92349,0.00041,389.298,0.224,0.6016,0.0043,139.999,45.000,31702.57971,1.93513,392.175,36.569,45.067,45.000,0.00,0.09,-272.75,-272.80,-9,516,-949,21.1,18.7,-3.7,21.3,18.9,-3.4,5.73,2.05,-2.0,27.8
2015-09-22 01:44:00,0.0,1.92370,0.00041,388.902,0.054,0.5917,0.0040,139.997,45.000,31703.07208,1.93508,391.721,36.568,45.067,45.000,0.00,0.09,-272.73,-272.80,-8,516,-949,21.1,18.4,-3.9,21.2,18.7,-3.5,5.73,1.84,-2.0,27.8
2015-09-22 01:45:00,0.0,1.92356,0.00036,389.014,0.090,0.5874,0.0026,139.997,45.000,31702.69737,1.93488,391.813,36.561,45.067,45.000,0.00,0.09,-272.75,-272.81,-8,516,-949,21.1,18.2,-4.0,21.3,18.5,-3.6,5.73,1.87,-2.0,27.8